Cut Bank, MT

11:59 PM MDT on October 18, 2017 (GMT -0600)
Cut Bank Municipal

Weather History for KCTB - August, 2014

Change the Weather History Date:

Thursday, August 21, 2014

  Actual Average Record
Temperature  
Mean Temperature 54 °F 63 °F  
Max Temperature 57 °F 78 °F 95 °F (1969)
Min Temperature 51 °F 47 °F 33 °F (1992)
Degree Days  
Heating Degree Days 11 4  
Month to date heating degree days 13 57  
Since 1 June heating degree days 303 376  
Since 1 July heating degree days 30 143  
Cooling Degree Days 0 2  
Month to date cooling degree days 89 55  
Year to date cooling degree days 194 144  
Since 1 June cooling degree days 194 142  
Growing Degree Days 4 (Base 50)    
Moisture  
Dew Point 50 °F    
Average Humidity 84    
Maximum Humidity 96    
Minimum Humidity 72    
Precipitation  
Precipitation 0.26 in 0.04 in 1.69 in (1932)
Month to date precipitation 1.78 0.79  
Year to date precipitation 12.93 8.26  
Snow  
Snow 0.00 in - - ()
Snow Depth 0.00 in    
Sea Level Pressure  
Sea Level Pressure 30.09 in    
Wind  
Wind Speed 11 mph (North)    
Max Wind Speed 20 mph    
Max Gust Speed 23 mph    
Visibility 8 miles    
Events Rain    
T = Trace of Precipitation, MM = Missing Value Source: NWS Daily Summary

Daily Weather History Graph

Daily Weather History Graph

Search for Another Location

Airport or City:

Trip Planner

Search our weather history database for the weather conditions in past years. The results will help you decide how hot, cold, wet, or windy it might be!

Date:

Astronomy

Aug. 21, 2014 Rise Set
Actual Time 6:31 AM MDT 8:32 PM MDT
Civil Twilight 5:57 AM MDT 9:06 PM MDT
Nautical Twilight 5:15 AM MDT 9:48 PM MDT
Astronomical Twilight 4:28 AM MDT 10:34 PM MDT
Moon 2:56 AM MDT (8/21) 6:11 PM MDT (8/21)
Length of Visible Light 15h 09m
Length of Day
14h 01m
Waning Crescent, 13% of the Moon is Illuminated
Aug 21
Waning Crescent
Aug 25
New
Sep 2
First Quarter
Sep 8
Full
Sep 15
Last Quarter

Hourly Weather History & Observations

Time (MDT) Temp. Dew Point Humidity Pressure Visibility Wind Dir Wind Speed Gust Speed Precip Events Conditions
12:10 AM 55.0 °F 53.1 °F 93% 30.01 in 8.0 mi NW 8.1 mph - N/A   Overcast
12:13 AM 55.0 °F 53.1 °F 93% 30.01 in 8.0 mi NNW 9.2 mph - N/A   Overcast
12:32 AM 55.0 °F 52.0 °F 89% 30.02 in 8.0 mi North 13.8 mph - N/A   Overcast
12:54 AM 55.4 °F 51.8 °F 88% 30.02 in 9.0 mi North 13.8 mph - N/A   Overcast
12:56 AM 55.0 °F 52.0 °F 89% 29.96 in 9.0 mi North 13.8 mph - N/A   Overcast
1:23 AM 54.0 °F 51.1 °F 90% 30.02 in 10.0 mi North 13.8 mph - N/A   Scattered Clouds
1:51 AM 53.6 °F 50.0 °F 88% 30.03 in 10.0 mi North 9.2 mph - N/A   Mostly Cloudy
1:56 AM 53.1 °F 50.0 °F 89% 29.97 in 10.0 mi North 11.5 mph - N/A   Mostly Cloudy
2:24 AM 53.1 °F 50.0 °F 89% 30.04 in 10.0 mi North 9.2 mph - N/A   Overcast
2:56 AM 53.1 °F 48.9 °F 86% 29.98 in 10.0 mi NNE 12.7 mph - N/A   Overcast
3:56 AM 53.6 °F 50.0 °F 88% 30.05 in 10.0 mi North 13.8 mph - N/A   Overcast
4:56 AM 52.0 °F 48.0 °F 86% 30.02 in 10.0 mi North 15.0 mph - N/A   Overcast
5:38 AM 52.0 °F 48.0 °F 86% 30.07 in 10.0 mi North 11.5 mph - N/A   Overcast
5:56 AM 52.0 °F 48.0 °F 86% 30.04 in 10.0 mi North 10.4 mph - N/A   Overcast
6:25 AM 52.0 °F 48.0 °F 86% 30.08 in 10.0 mi North 10.4 mph - N/A   Overcast
6:56 AM 52.0 °F 48.9 °F 89% 30.06 in 9.0 mi North 10.4 mph - N/A   Overcast
7:24 AM 51.1 °F 50.0 °F 96% 30.08 in 2.5 mi North 11.5 mph - N/A   Overcast
7:31 AM 52.0 °F 50.0 °F 93% 30.08 in 7.0 mi North 11.5 mph - N/A   Overcast
7:56 AM 52.0 °F 48.9 °F 89% 30.07 in 10.0 mi North 9.2 mph - N/A   Overcast
8:56 AM 53.1 °F 48.9 °F 86% 30.08 in 10.0 mi NNW 4.6 mph - N/A   Overcast
9:56 AM 54.0 °F 48.9 °F 83% 30.09 in 10.0 mi North 5.8 mph - N/A   Overcast
10:56 AM 51.8 °F 50.0 °F 94% 30.12 in 3.0 mi NNW 9.2 mph - N/A Rain Light Rain
10:59 AM 52.0 °F 50.0 °F 93% 30.12 in 3.0 mi NNW 8.1 mph - 0.00 in Rain Rain
11:12 AM 52.0 °F 50.0 °F 93% 30.12 in 4.0 mi NW 8.1 mph - 0.02 in Rain Light Rain
11:31 AM 52.0 °F 50.0 °F 93% 30.13 in 4.0 mi WNW 10.4 mph - 0.05 in Rain Light Rain
11:44 AM 52.0 °F 50.0 °F 93% 30.13 in 2.5 mi NW 12.7 mph - 0.09 in Rain Rain
11:56 AM 52.0 °F 50.0 °F 93% 30.12 in 3.0 mi NW 9.2 mph - 0.10 in Rain Light Rain
12:14 PM 53.1 °F 50.0 °F 89% 30.13 in 2.5 mi North 12.7 mph - 0.06 in Rain Rain
12:26 PM 53.1 °F 50.0 °F 89% 30.13 in 4.0 mi NNW 16.1 mph - 0.07 in Rain Light Rain
12:40 PM 53.1 °F 51.1 °F 93% 30.13 in 7.0 mi North 13.8 mph - 0.08 in Rain Light Rain
12:56 PM 54.0 °F 51.1 °F 90% 30.11 in 9.0 mi North 12.7 mph - 0.08 in   Overcast
1:17 PM 54.0 °F 51.1 °F 90% 30.13 in 9.0 mi North 13.8 mph - N/A   Overcast
1:56 PM 54.0 °F 51.1 °F 90% 30.12 in 10.0 mi North 16.1 mph - N/A   Overcast
2:56 PM 54.0 °F 50.0 °F 86% 30.13 in 9.0 mi North 16.1 mph - N/A   Overcast
3:12 PM 55.0 °F 50.0 °F 83% 30.15 in 10.0 mi North 16.1 mph - N/A   Overcast
3:56 PM 57.0 °F 48.9 °F 74% 30.13 in 10.0 mi North 18.4 mph - N/A   Overcast
4:25 PM 57.0 °F 48.0 °F 72% 30.15 in 10.0 mi NNE 15.0 mph - N/A   Overcast
4:40 PM 55.9 °F 48.0 °F 75% 30.15 in 10.0 mi NNE 16.1 mph - N/A   Overcast
4:56 PM 55.9 °F 48.9 °F 77% 30.13 in 10.0 mi North 16.1 mph - N/A   Overcast
5:56 PM 54.0 °F 48.0 °F 80% 30.15 in 10.0 mi NNE 13.8 mph - N/A   Overcast
6:56 PM 54.0 °F 48.0 °F 80% 30.15 in 10.0 mi North 16.1 mph - N/A   Overcast
7:42 PM 53.1 °F 48.0 °F 83% 30.16 in 10.0 mi North 12.7 mph - N/A   Overcast
7:56 PM 53.1 °F 48.0 °F 83% 30.15 in 10.0 mi NNE 12.7 mph - N/A   Overcast
8:56 PM 53.1 °F 48.9 °F 86% 30.17 in 10.0 mi NNE 10.4 mph - N/A   Overcast
9:56 PM 51.8 °F 48.2 °F 88% 30.19 in 10.0 mi NE 8.1 mph - N/A   Overcast
10:56 PM 52.0 °F 48.0 °F 86% 30.18 in 10.0 mi North 6.9 mph - N/A   Overcast
11:56 PM 51.8 °F 48.2 °F 88% 30.19 in 10.0 mi North 6.9 mph - N/A   Overcast